TITAN 3A TRANSTAGE R/B, 1001

Orbit data source: Space-Track

TITAN 3A TRANSTAGE R/B, 1001 is space debris in LEO originally from a launch on Thu, 11 Feb 1965 UTC via a TITAN IIIA launch vehicle from the Air Force Eastern Test Range (AFETR). Debris objects in space refer to the collection of defunct objects orbiting the Earth. Examples of debris include non-operational satellites, rocket bodies, and fragments generated from explosions, collisions, or faulty payload assembly.

Loading next visibility...
Identifier
1001, 1965-008A
Orbit
LEO
Last TLE update
1 day ago
Origin
Manufacturer
Martin Marietta
Mission
Spacecraft
Bus & Motor
TRUSS, Unknown motor
Mass
336 kg wet, 336 kg dry
Launch date (UTC)
1965-02-11 (60 years ago)
Launch vehicle
TITAN IIIA
Launch site
Air Force Eastern Test Range (AFETR)
Object type
Payload
Rocket body
Debris
Shape & HBR
Cyl + 2 Nozzle, 3.1 m
Radar Cross Section
8.643 m², Large (>1 m²)

Expand to show TLE details & history

TLE from 1 day ago
0 TITAN 3A TRANSTAGE R/B
1 01001U 65008A   25118.96148239  .00000008  00000-0 -64375-4 0  9998
2 01001  32.1517  14.4365 0018370 201.6659 158.3062  9.90722607180392
Epoch: 2025-04-28T23:04Z
Definitive object data (Epoch: 2025-04-28T23:04:32.078Z)
Latitude
-0.00002°
Longitude
171.13482°
Altitude
2,793.749 km
Speed
6.589 km/s
True Right ascension
00h 57m 44s
True Declination
0° 00' 00"
Sunlit
Object was in daylight at TLE epoch
Visualization TLE readout
Latitude
-32.08158°
Longitude
71.78612°
Altitude
2,778.635 km
Speed
6.603 km/s
Apparent Right ascension
19h 12m 12s
Apparent Declination
-36° 16' 53"
Sunlit
Object is in daylight
Visualization observer readout
Local Sidereal Time
08:35:31
Azimuth
84.106° E
Elevation
-73.252°
Doppler factor
1
Orbital elements
Apogee altitude
2,798.756 km
Perigee altitude
2,765.102 km
Semi-major axis
9,160.066 km
Eccentricity
0.001837
Inclination
32.1517°
RAAN
14.4365°
Arg. of periapsis
201.6659°
True anomaly
158.38385°
Mean anomaly
158.3062°
Eccentric anomaly
158.34504°
Mean motion
2.47568 °/min
BSTAR
-0.000064375
Orbital period
145.41 mins
Loading maneuver chart data...
Loading SW <> Apogee altitude chart data...
Loading historical data...
Loading historical data...
Loading historical data...
Loading historical data...
Loading historical data...
Loading historical data...
Loading historical data...
Other satellites on launch #8 in the year 1965 (1965-02-11 UTC)

TITAN 3A TRANSTAGE R/B Visibility forecast

Observer location: undefined°, undefined°

Span
Click to sort rows by Start time (UTC) header in descending order
Start Az.
Max El. time (UTC)
Max El. Az.
Max El.
End time (UTC)
End Az.
28 mins2025-04-30 02:19:03.688Z271.419° WNW2025-04-30 02:33:03.688Z206.981° SW34.487°2025-04-30 02:47:03.688Z142.309° SSE
13 mins2025-04-30 05:03:03.688Z246.34° WSW2025-04-30 05:09:03.688Z221.97° SW14.742°2025-04-30 05:16:03.688Z194.122° SSW
25 mins2025-04-30 18:44:03.688Z202.175° SSW2025-04-30 18:56:03.688Z147.441° SSE29.401°2025-04-30 19:09:03.688Z90.333° ESE
29 mins2025-04-30 21:19:03.688Z239.956° WSW2025-04-30 21:33:03.688Z162.638° S40.954°2025-04-30 21:48:03.688Z92.457° ESE
29 mins2025-04-30 23:56:03.688Z264.309° W2025-05-01 00:10:03.688Z191.862° SSW41.568°2025-05-01 00:25:03.688Z114.471° SE
|